This demonstration page uses our WeatherBlox Daily Observations layout. Learn more.

Left ArrowRight Arrow

Hourly Observations for June 2, 2017

Temp ( °F °C ) Dew Point ( °F °C ) Humidity (%) Winds ( mph kmh ) Pressure ( in mb ) Visibility ( mi km ) Precip ( " mm )
12:51 am 00:51 Clear 71 21.7 46 7.8 41 41 SE 7 11 29.76 1008 10 16 N/A
1:51 am 01:51 Clear 69 20.6 46 7.8 44 44 SE 6 9 29.77 1008 10 16 N/A
2:51 am 02:51 Clear 68 20 46 7.8 45 45 S 9 15 29.76 1008 10 16 N/A
3:51 am 03:51 Clear 65 18.3 45 7.2 49 49 ESE 6 9 29.78 1008 10 16 N/A
4:51 am 04:51 Clear 67 19.4 47 8.3 49 49 SSE 9 15 29.77 1008 10 16 N/A
5:51 am 05:51 Sunny 66 18.9 46 7.8 49 49 SE 9 15 29.79 1009 10 16 N/A
6:51 am 06:51 Sunny 70 21.1 47 8.3 44 44 SE 12 19 29.80 1009 10 16 N/A
7:51 am 07:51 Sunny 75 23.9 48 8.9 39 39 SE 9 15 29.82 1010 10 16 N/A
8:51 am 08:51 Sunny 78 25.6 48 8.9 35 35 SE 7 11 29.80 1009 10 16 N/A
9:51 am 09:51 Sunny 83 28.3 46 7.8 27 27 SSE 7 11 29.79 1009 10 16 N/A
10:51 am 10:51 Sunny 85 29.4 45 7.2 25 25 VRB 3 6 29.79 1009 10 16 N/A
11:51 am 11:51 Sunny 88 31.1 44 6.7 22 22 VRB 3 6 29.75 1008 10 16 N/A
12:51 pm 12:51 Sunny 90 32.2 39 3.9 17 17 SSE 8 13 29.72 1006 10 16 N/A
1:51 pm 13:51 Sunny 92 33.3 38 3.3 15 15 undefined N/A 29.69 1005 10 16 N/A
2:51 pm 14:51 Sunny 93 33.9 33 0.6 12 12 S 6 9 29.67 1005 10 16 N/A
3:23 pm 15:23 Mostly Sunny 92 33.3 40 4.4 16 16 NNW 17 28 29.56 1001 10 16 N/A
3:51 pm 15:51 Sunny 92 33.3 37 2.8 14 14 N 13 20 29.67 1005 10 16 N/A
5:51 pm 17:51 Mostly Sunny 91 32.8 35 1.7 14 14 NE 6 9 29.68 1005 10 16 N/A
6:51 pm 18:51 Partly Cloudy 84 28.9 45 7.2 25 25 NE 25 41 29.71 1006 10 16 N/A
7:51 pm 19:51 Clear 82 27.8 43 6.1 25 25 E 8 13 29.72 1007 10 16 N/A
8:51 pm 20:51 Clear 78 25.6 43 6.1 29 29 VRB 3 6 29.74 1007 10 16 N/A
9:51 pm 21:51 Clear 75 23.9 43 6.1 32 32 undefined N/A 29.75 1007 10 16 N/A
10:51 pm 22:51 Clear 75 23.9 43 6.1 32 32 N N/A 29.75 1008 10 16 N/A
11:51 pm 23:51 Clear 74 23.3 44 6.7 34 34 E 7 11 29.74 1007 10 16 N/A

Powered by AerisWeather